78.3160; 168.9210;1; 358.226; 258.438;1966.04.22 12:00:00;-999.0;-999.0;-999.0; 999.0;    .000;    .000;   0.000; 90;
78.3348; 168.8999;2; 358.016; 258.445;1966.04.22 18:00:00;-999.0;-999.0;-999.0; 999.0;   2.140;    .250;   0.357;347;
78.3535; 168.8787;2; 357.807; 258.451;1966.04.23 00:00:00;-999.0;-999.0;-999.0; 999.0;   4.278;    .500;   0.356;347;
78.3723; 168.8574;2; 357.597; 258.458;1966.04.23 06:00:00;-999.0;-999.0;-999.0; 999.0;   6.417;    .750;   0.357;347;
78.3910; 168.8360;2; 357.388; 258.464;1966.04.23 12:00:00;-999.0;-999.0;-999.0; 999.0;   8.555;   1.000;   0.356;347;
78.4098; 168.8146;2; 357.178; 258.470;1966.04.23 18:00:00;-999.0;-999.0;-999.0; 999.0;  10.695;   1.250;   0.357;347;
78.4285; 168.7932;2; 356.969; 258.477;1966.04.24 00:00:00;-999.0;-999.0;-999.0; 999.0;  12.834;   1.500;   0.357;347;
78.4473; 168.7716;2; 356.759; 258.483;1966.04.24 06:00:00;-999.0;-999.0;-999.0; 999.0;  14.973;   1.750;   0.356;347;
78.4660; 168.7500;2; 356.550; 258.490;1966.04.24 12:00:00;-999.0;-999.0;-999.0; 999.0;  17.113;   2.000;   0.357;347;
78.5478; 168.7062;2; 355.658; 258.409;1966.04.24 18:00:00;-999.0;-999.0;-999.0; 999.0;  26.255;   2.250;   1.524;354;
78.6295; 168.6618;2; 354.766; 258.328;1966.04.25 00:00:00;-999.0;-999.0;-999.0; 999.0;  35.398;   2.500;   1.524;354;
78.7113; 168.6167;2; 353.874; 258.247;1966.04.25 06:00:00;-999.0;-999.0;-999.0; 999.0;  44.541;   2.750;   1.524;354;
78.7930; 168.5710;2; 352.982; 258.166;1966.04.25 12:00:00;-999.0;-999.0;-999.0; 999.0;  53.684;   3.000;   1.524;354;
78.8020; 168.6262;2; 352.909; 258.032;1966.04.25 18:00:00;-999.0;-999.0;-999.0; 999.0;  55.244;   3.250;   0.260; 50;
78.8111; 168.6815;2; 352.836; 257.899;1966.04.26 00:00:00;-999.0;-999.0;-999.0; 999.0;  56.802;   3.500;   0.260; 50;
78.8201; 168.7368;2; 352.762; 257.765;1966.04.26 06:00:00;-999.0;-999.0;-999.0; 999.0;  58.362;   3.750;   0.260; 50;
78.8291; 168.7923;2; 352.689; 257.631;1966.04.26 12:00:00;-999.0;-999.0;-999.0; 999.0;  59.920;   4.000;   0.260; 50;
78.8381; 168.8478;2; 352.615; 257.497;1966.04.26 18:00:00;-999.0;-999.0;-999.0; 999.0;  61.480;   4.250;   0.260; 50;
78.8471; 168.9035;2; 352.542; 257.363;1966.04.27 00:00:00;-999.0;-999.0;-999.0; 999.0;  63.039;   4.500;   0.260; 50;
78.8560; 168.9592;2; 352.469; 257.229;1966.04.27 06:00:00;-999.0;-999.0;-999.0; 999.0;  64.598;   4.750;   0.260; 50;
78.8650; 169.0150;2; 352.395; 257.095;1966.04.27 12:00:00;-999.0;-999.0;-999.0; 999.0;  66.157;   5.000;   0.260; 50;
78.8760; 169.0302;2; 352.284; 257.041;1966.04.27 18:00:00;-999.0;-999.0;-999.0; 999.0;  67.424;   5.250;   0.211; 15;
78.8870; 169.0455;2; 352.172; 256.987;1966.04.28 00:00:00;-999.0;-999.0;-999.0; 999.0;  68.691;   5.500;   0.211; 15;
78.8980; 169.0608;2; 352.061; 256.933;1966.04.28 06:00:00;-999.0;-999.0;-999.0; 999.0;  69.957;   5.750;   0.211; 15;
78.9090; 169.0762;2; 351.949; 256.878;1966.04.28 12:00:00;-999.0;-999.0;-999.0; 999.0;  71.224;   6.000;   0.211; 15;
78.9200; 169.0916;2; 351.838; 256.824;1966.04.28 18:00:00;-999.0;-999.0;-999.0; 999.0;  72.491;   6.250;   0.211; 15;
78.9310; 169.1069;2; 351.726; 256.770;1966.04.29 00:00:00;-999.0;-999.0;-999.0; 999.0;  73.757;   6.500;   0.211; 15;
78.9420; 169.1224;2; 351.615; 256.715;1966.04.29 06:00:00;-999.0;-999.0;-999.0; 999.0;  75.023;   6.750;   0.211; 15;
78.9530; 169.1378;2; 351.503; 256.661;1966.04.29 12:00:00;-999.0;-999.0;-999.0; 999.0;  76.290;   7.000;   0.211; 15;
78.9640; 169.1533;2; 351.392; 256.607;1966.04.29 18:00:00;-999.0;-999.0;-999.0; 999.0;  77.557;   7.250;   0.211; 15;
78.9750; 169.1689;2; 351.280; 256.553;1966.04.30 00:00:00;-999.0;-999.0;-999.0; 999.0;  78.825;   7.500;   0.211; 15;
78.9860; 169.1844;2; 351.169; 256.498;1966.04.30 06:00:00;-999.0;-999.0;-999.0; 999.0;  80.090;   7.750;   0.211; 15;
78.9970; 169.2000;2; 351.057; 256.444;1966.04.30 12:00:00;-999.0;-999.0;-999.0; 999.0;  81.357;   8.000;   0.211; 15;
79.0062; 169.1848;2; 350.953; 256.456;1966.04.30 18:00:00;-999.0;-999.0;-999.0; 999.0;  82.435;   8.250;   0.180;343;
79.0155; 169.1696;2; 350.848; 256.468;1966.05.01 00:00:00;-999.0;-999.0;-999.0; 999.0;  83.513;   8.500;   0.180;343;
79.0248; 169.1544;2; 350.743; 256.480;1966.05.01 06:00:00;-999.0;-999.0;-999.0; 999.0;  84.591;   8.750;   0.180;343;
79.0340; 169.1392;2; 350.638; 256.492;1966.05.01 12:00:00; -15.0;1015.2;   2.0; 360.0;  85.670;   9.000;   0.180;343;
79.0433; 169.1239;2; 350.533; 256.504;1966.05.01 18:00:00; -15.4;1016.4;   3.0; 360.0;  86.747;   9.250;   0.180;343;
79.0525; 169.1086;2; 350.429; 256.516;1966.05.02 00:00:00; -14.7;1017.7;   3.0; 360.0;  87.824;   9.500;   0.180;343;
79.0618; 169.0933;2; 350.324; 256.528;1966.05.02 06:00:00; -15.8;1019.5;   2.0; 360.0;  88.903;   9.750;   0.180;343;
79.0710; 169.0780;2; 350.219; 256.540;1966.05.02 12:00:00; -21.3;1021.1;   2.0; 360.0;  89.981;  10.000;   0.180;343;
79.0740; 169.0235;2; 350.165; 256.645;1966.05.02 18:00:00; -22.6;1021.0;   2.0; 360.0;  91.177;  10.250;   0.199;286;
79.0770; 168.9691;2; 350.112; 256.749;1966.05.03 00:00:00; -17.9;1020.4;   2.0;  20.0;  92.372;  10.500;   0.199;286;
79.0800; 168.9145;2; 350.058; 256.853;1966.05.03 06:00:00; -14.6;1018.0;   2.0;  90.0;  93.568;  10.750;   0.199;286;
79.0830; 168.8600;2; 350.005; 256.957;1966.05.03 12:00:00; -13.8;1016.5;   0.0;   0.0;  94.764;  11.000;   0.199;286;
79.0827; 168.8456;2; 350.002; 256.986;1966.05.03 18:00:00; -13.6;1015.4;   1.0; 320.0;  95.069;  11.250;   0.051;265;
79.0825; 168.8312;2; 349.998; 257.016;1966.05.04 00:00:00; -13.3;1014.5;   1.0; 320.0;  95.374;  11.500;   0.051;265;
79.0823; 168.8167;2; 349.995; 257.046;1966.05.04 06:00:00; -10.1;1013.6;   0.0;   0.0;  95.679;  11.750;   0.051;265;
79.0820; 168.8023;2; 349.992; 257.075;1966.05.04 12:00:00; -20.2;1013.8;   1.0; 230.0;  95.984;  12.000;   0.051;265;
79.0818; 168.7879;2; 349.989; 257.105;1966.05.04 18:00:00; -22.3;1013.4;   2.0; 200.0;  96.289;  12.250;   0.051;265;
79.0815; 168.7735;2; 349.986; 257.135;1966.05.05 00:00:00; -16.6;1014.0;   2.0; 250.0;  96.594;  12.500;   0.051;265;
79.0813; 168.7591;2; 349.983; 257.164;1966.05.05 06:00:00; -15.5;1016.5;   4.0; 320.0;  96.899;  12.750;   0.051;265;
79.0810; 168.7447;2; 349.980; 257.194;1966.05.05 12:00:00; -23.4;1020.8;   4.0; 320.0;  97.203;  13.000;   0.051;265;
79.0808; 168.7302;2; 349.977; 257.224;1966.05.05 18:00:00; -25.6;1024.6;   3.0; 320.0;  97.508;  13.250;   0.051;265;
79.0805; 168.7158;2; 349.973; 257.253;1966.05.06 00:00:00; -21.7;1026.5;   3.0; 320.0;  97.813;  13.500;   0.051;265;
79.0803; 168.7014;2; 349.970; 257.283;1966.05.06 06:00:00; -20.6;1026.9;   2.0; 320.0;  98.118;  13.750;   0.051;265;
79.0800; 168.6870;2; 349.967; 257.313;1966.05.06 12:00:00; -25.0;1025.3;   1.0; 320.0;  98.423;  14.000;   0.051;265;
79.0801; 168.6738;2; 349.961; 257.339;1966.05.06 18:00:00; -24.8;1023.7;   1.0; 270.0;  98.702;  14.250;   0.047;273;
79.0803; 168.6605;2; 349.954; 257.366;1966.05.07 00:00:00; -17.6;1022.1;   1.0; 160.0;  98.982;  14.500;   0.047;273;
79.0804; 168.6472;2; 349.947; 257.392;1966.05.07 06:00:00; -14.7;1020.7;   0.0;   0.0;  99.261;  14.750;   0.047;273;
79.0805; 168.6340;2; 349.940; 257.419;1966.05.07 12:00:00; -18.4;1020.6;   0.0;   0.0;  99.541;  15.000;   0.047;273;
79.0806; 168.6207;2; 349.934; 257.445;1966.05.07 18:00:00; -16.3;1020.1;   0.0;   0.0;  99.820;  15.250;   0.047;273;
79.0807; 168.6075;2; 349.927; 257.472;1966.05.08 00:00:00; -10.4;1020.0;   0.0;   0.0; 100.100;  15.500;   0.047;273;
79.0809; 168.5943;2; 349.920; 257.498;1966.05.08 06:00:00; -12.6;1019.9;   1.0; 360.0; 100.379;  15.750;   0.047;273;
79.0810; 168.5810;2; 349.914; 257.525;1966.05.08 12:00:00; -13.0;1020.1;   1.0; 360.0; 100.659;  16.000;   0.047;273;
79.0807; 168.5508;2; 349.904; 257.587;1966.05.08 18:00:00; -11.4;1019.9;   2.0;  20.0; 101.296;  16.250;   0.106;267;
79.0805; 168.5205;2; 349.894; 257.648;1966.05.09 00:00:00; -15.5;1019.4;   2.0;  70.0; 101.934;  16.500;   0.106;268;
79.0803; 168.4902;2; 349.884; 257.710;1966.05.09 06:00:00; -15.1;1018.3;   1.0;  90.0; 102.572;  16.750;   0.106;267;
79.0800; 168.4600;2; 349.875; 257.772;1966.05.09 12:00:00; -14.0;1016.7;   1.0; 360.0; 103.209;  17.000;   0.106;267;
79.0799; 168.4516;2; 349.872; 257.789;1966.05.09 18:00:00; -12.5;1015.8;   1.0;  50.0; 103.387;  17.250;   0.030;266;
79.0798; 168.4433;2; 349.870; 257.806;1966.05.10 00:00:00; -13.0;1014.2;   2.0; 320.0; 103.563;  17.500;   0.029;265;
79.0796; 168.4349;2; 349.868; 257.823;1966.05.10 06:00:00; -12.2;1013.0;   0.0;   0.0; 103.740;  17.750;   0.029;266;
79.0795; 168.4265;2; 349.866; 257.840;1966.05.10 12:00:00; -13.2;1010.9;   3.0; 180.0; 103.917;  18.000;   0.030;265;
79.0794; 168.4181;2; 349.864; 257.857;1966.05.10 18:00:00; -14.8;1010.3;   5.0; 200.0; 104.094;  18.250;   0.029;266;
79.0792; 168.4097;2; 349.862; 257.875;1966.05.11 00:00:00; -12.7;1008.5;   5.0; 230.0; 104.271;  18.500;   0.030;265;
79.0791; 168.4014;2; 349.860; 257.892;1966.05.11 06:00:00; -12.8;1008.1;   4.0; 230.0; 104.448;  18.750;   0.029;266;
79.0790; 168.3930;2; 349.857; 257.909;1966.05.11 12:00:00; -16.4;1008.4;   3.0; 250.0; 104.625;  19.000;   0.029;265;
79.0816; 168.3957;2; 349.831; 257.898;1966.05.11 18:00:00; -12.8;1010.8;   2.0; 320.0; 104.917;  19.250;   0.049; 11;
79.0842; 168.3983;2; 349.805; 257.887;1966.05.12 00:00:00; -12.2;1011.5;   2.0; 200.0; 105.210;  19.500;   0.049; 11;
79.0867; 168.4010;2; 349.778; 257.876;1966.05.12 06:00:00; -13.6;1008.6;   6.0; 140.0; 105.502;  19.750;   0.049; 11;
79.0893; 168.4037;2; 349.752; 257.865;1966.05.12 12:00:00; -14.1;1004.8;   6.0; 160.0; 105.796;  20.000;   0.049; 11;
79.0919; 168.4063;2; 349.725; 257.854;1966.05.12 18:00:00; -15.1;1002.1;   5.0; 140.0; 106.088;  20.250;   0.049; 11;
79.0945; 168.4090;2; 349.699; 257.843;1966.05.13 00:00:00; -13.9;1001.6;   3.0; 160.0; 106.381;  20.500;   0.049; 11;
79.0971; 168.4116;2; 349.673; 257.832;1966.05.13 06:00:00; -14.0;1000.9;   2.0; 180.0; 106.673;  20.750;   0.049; 11;
79.0997; 168.4143;2; 349.646; 257.821;1966.05.13 12:00:00; -17.6; 998.8;   2.0; 250.0; 106.967;  21.000;   0.049; 11;
79.1022; 168.4170;2; 349.620; 257.810;1966.05.13 18:00:00; -20.8; 998.0;   2.0; 290.0; 107.259;  21.250;   0.049; 11;
79.1048; 168.4196;2; 349.593; 257.799;1966.05.14 00:00:00; -16.0; 999.3;   4.0; 320.0; 107.551;  21.500;   0.049; 11;
79.1074; 168.4223;2; 349.567; 257.788;1966.05.14 06:00:00; -15.0; 998.6;   8.0; 290.0; 107.845;  21.750;   0.049; 11;
79.1100; 168.4250;2; 349.540; 257.777;1966.05.14 12:00:00; -13.8; 997.5;   6.0; 290.0; 108.137;  22.000;   0.049; 11;
79.1186; 168.4380;2; 349.454; 257.732;1966.05.14 18:00:00; -15.2; 999.7;   7.0; 340.0; 109.135;  22.250;   0.166; 16;
79.1273; 168.4511;2; 349.367; 257.687;1966.05.15 00:00:00; -13.8;1002.1;   7.0; 320.0; 110.132;  22.500;   0.166; 16;
79.1359; 168.4642;2; 349.281; 257.641;1966.05.15 06:00:00; -11.4;1002.6;   7.0; 290.0; 111.130;  22.750;   0.166; 16;
79.1445; 168.4773;2; 349.194; 257.596;1966.05.15 12:00:00; -12.8;1002.8;   9.0; 290.0; 112.127;  23.000;   0.166; 16;
79.1531; 168.4905;2; 349.107; 257.551;1966.05.15 18:00:00; -16.2;1002.8;   6.0; 270.0; 113.125;  23.250;   0.166; 16;
79.1618; 168.5036;2; 349.021; 257.506;1966.05.16 00:00:00; -13.5;1001.8;   8.0; 270.0; 114.123;  23.500;   0.166; 16;
79.1704; 168.5168;2; 348.934; 257.461;1966.05.16 06:00:00; -14.3; 999.0;   4.0; 230.0; 115.121;  23.750;   0.166; 16;
79.1790; 168.5300;2; 348.848; 257.416;1966.05.16 12:00:00; -13.4; 992.4;   4.0; 110.0; 116.118;  24.000;   0.166; 16;
79.1779; 168.7103;2; 348.932; 257.057;1966.05.16 18:00:00; -13.5; 989.1;   4.0; 360.0; 119.885;  24.250;   0.628; 92;
79.1767; 168.8906;2; 349.016; 256.698;1966.05.17 00:00:00; -13.5; 990.6;   6.0; 250.0; 123.651;  24.500;   0.628; 92;
79.1754; 169.0708;2; 349.100; 256.340;1966.05.17 06:00:00; -11.6; 989.2;   9.0; 250.0; 127.417;  24.750;   0.628; 92;
79.1740; 169.2510;2; 349.185; 255.981;1966.05.17 12:00:00; -10.8; 987.7;  10.0; 200.0; 131.184;  25.000;   0.628; 92;
79.1723; 169.3166;2; 349.228; 255.852;1966.05.17 18:00:00; -10.6; 986.7;  10.0; 200.0; 132.566;  25.250;   0.230; 98;
79.1706; 169.3822;2; 349.271; 255.724;1966.05.18 00:00:00; -10.3; 987.3;  10.0; 230.0; 133.950;  25.500;   0.231; 98;
79.1689; 169.4478;2; 349.313; 255.596;1966.05.18 06:00:00;  -9.7; 989.1;  10.0; 200.0; 135.333;  25.750;   0.230; 98;
79.1672; 169.5133;2; 349.356; 255.467;1966.05.18 12:00:00;  -9.8; 992.6;   4.0; 230.0; 136.716;  26.000;   0.230; 98;
79.1655; 169.5789;2; 349.399; 255.339;1966.05.18 18:00:00; -15.2; 996.0;   3.0; 360.0; 138.099;  26.250;   0.231; 98;
79.1637; 169.6444;2; 349.442; 255.210;1966.05.19 00:00:00; -14.6; 998.9;   5.0;  20.0; 139.482;  26.500;   0.231; 98;
79.1620; 169.7099;2; 349.484; 255.082;1966.05.19 06:00:00; -14.4;1002.1;   5.0; 360.0; 140.865;  26.750;   0.230; 98;
79.1602; 169.7753;2; 349.527; 254.954;1966.05.19 12:00:00; -17.8;1005.2;   2.0; 320.0; 142.248;  27.000;   0.231; 98;
79.1584; 169.8408;2; 349.570; 254.825;1966.05.19 18:00:00; -17.3;1006.7;   1.0; 320.0; 143.631;  27.250;   0.231; 98;
79.1566; 169.9062;2; 349.613; 254.697;1966.05.20 00:00:00; -13.0;1007.2;   2.0; 360.0; 145.014;  27.500;   0.230; 98;
79.1548; 169.9716;2; 349.656; 254.569;1966.05.20 06:00:00; -11.3;1007.2;   0.0;   0.0; 146.397;  27.750;   0.231; 98;
79.1530; 170.0370;2; 349.699; 254.440;1966.05.20 12:00:00; -16.8;1007.1;   1.0; 110.0; 147.780;  28.000;   0.231; 98;
79.1570; 170.0636;2; 349.665; 254.379;1966.05.20 18:00:00; -16.6;1006.4;   2.0; 110.0; 148.493;  28.250;   0.119; 51;
79.1610; 170.0901;2; 349.632; 254.318;1966.05.21 00:00:00; -13.8;1006.2;   4.0; 110.0; 149.205;  28.500;   0.119; 51;
79.1650; 170.1167;2; 349.598; 254.257;1966.05.21 06:00:00; -13.0;1007.8;   4.0;  90.0; 149.917;  28.750;   0.119; 51;
79.1690; 170.1433;2; 349.564; 254.196;1966.05.21 12:00:00; -16.4;1011.2;   2.0;  20.0; 150.629;  29.000;   0.119; 51;
79.1730; 170.1700;2; 349.531; 254.135;1966.05.21 18:00:00; -14.5;1014.1;   4.0; 360.0; 151.342;  29.250;   0.119; 51;
79.1770; 170.1966;2; 349.497; 254.074;1966.05.22 00:00:00; -13.6;1015.9;   3.0; 320.0; 152.053;  29.500;   0.119; 51;
79.1810; 170.2233;2; 349.464; 254.012;1966.05.22 06:00:00; -12.8;1017.4;   3.0; 290.0; 152.766;  29.750;   0.119; 51;
79.1850; 170.2500;2; 349.430; 253.951;1966.05.22 12:00:00; -12.4;1017.9;   1.0; 250.0; 153.478;  30.000;   0.119; 51;
79.1933; 170.3056;2; 349.361; 253.824;1966.05.22 18:00:00; -11.9;1018.5;   1.0; 230.0; 154.958;  30.250;   0.247; 52;
79.2015; 170.3613;2; 349.291; 253.697;1966.05.23 00:00:00; -10.9;1017.7;   5.0; 200.0; 156.439;  30.500;   0.247; 52;
79.2098; 170.4171;2; 349.222; 253.570;1966.05.23 06:00:00; -10.3;1016.2;   5.0; 200.0; 157.919;  30.750;   0.247; 52;
79.2180; 170.4730;2; 349.152; 253.443;1966.05.23 12:00:00; -11.2;1014.0;   5.0; 180.0; 159.399;  31.000;   0.247; 52;
79.2240; 170.4982;2; 349.096; 253.382;1966.05.23 18:00:00; -11.2;1010.4;   6.0; 140.0; 160.247;  31.250;   0.141; 38;
79.2300; 170.5233;2; 349.040; 253.321;1966.05.24 00:00:00; -10.2;1006.0;   8.0; 160.0; 161.095;  31.500;   0.141; 38;
79.2360; 170.5485;2; 348.984; 253.259;1966.05.24 06:00:00;  -8.8;1002.4;   9.0; 160.0; 161.944;  31.750;   0.142; 38;
79.2420; 170.5738;2; 348.928; 253.198;1966.05.24 12:00:00;  -8.4;1001.0;   2.0; 180.0; 162.792;  32.000;   0.141; 38;
79.2480; 170.5990;2; 348.872; 253.137;1966.05.24 18:00:00;  -9.0;1002.9;   6.0; 290.0; 163.641;  32.250;   0.141; 38;
79.2540; 170.6243;2; 348.816; 253.075;1966.05.25 00:00:00; -12.0;1007.2;   6.0; 290.0; 164.489;  32.500;   0.141; 38;
79.2600; 170.6496;2; 348.760; 253.014;1966.05.25 06:00:00; -12.0;1010.3;   4.0; 320.0; 165.337;  32.750;   0.141; 38;
79.2660; 170.6750;2; 348.704; 252.953;1966.05.25 12:00:00; -15.4;1012.0;   1.0;  90.0; 166.186;  33.000;   0.141; 38;
79.2692; 170.6988;2; 348.678; 252.900;1966.05.25 18:00:00; -13.9;1011.3;   4.0; 110.0; 166.791;  33.250;   0.101; 54;
79.2723; 170.7225;2; 348.652; 252.847;1966.05.26 00:00:00; -10.8;1009.0;   7.0; 140.0; 167.397;  33.500;   0.101; 54;
79.2755; 170.7463;2; 348.625; 252.794;1966.05.26 06:00:00;  -8.8;1005.8;   7.0; 140.0; 168.003;  33.750;   0.101; 54;
79.2787; 170.7701;2; 348.599; 252.741;1966.05.26 12:00:00;  -6.6;1003.7;   6.0; 140.0; 168.608;  34.000;   0.101; 54;
79.2819; 170.7939;2; 348.573; 252.688;1966.05.26 18:00:00;  -4.2;1003.2;   5.0; 200.0; 169.214;  34.250;   0.101; 54;
79.2850; 170.8177;2; 348.546; 252.634;1966.05.27 00:00:00;  -5.1;1004.2;   9.0; 140.0; 169.819;  34.500;   0.101; 55;
79.2882; 170.8416;2; 348.520; 252.581;1966.05.27 06:00:00;  -2.4;1003.2;  10.0; 160.0; 170.425;  34.750;   0.101; 54;
79.2914; 170.8654;2; 348.494; 252.528;1966.05.27 12:00:00;  -2.0;1001.4;  12.0; 180.0; 171.030;  35.000;   0.101; 55;
79.2945; 170.8893;2; 348.467; 252.475;1966.05.27 18:00:00;  -5.2; 999.2;   9.0; 270.0; 171.637;  35.250;   0.101; 54;
79.2977; 170.9132;2; 348.441; 252.422;1966.05.28 00:00:00;  -7.6;1002.0;   9.0; 230.0; 172.242;  35.500;   0.101; 55;
79.3008; 170.9371;2; 348.415; 252.369;1966.05.28 06:00:00;  -8.5;1003.0;   6.0; 230.0; 172.847;  35.750;   0.101; 55;
79.3040; 170.9610;2; 348.388; 252.316;1966.05.28 12:00:00;  -9.2;1006.1;   5.0; 270.0; 173.453;  36.000;   0.101; 55;
79.3130; 171.0520;2; 348.320; 252.119;1966.05.28 18:00:00;  -9.2;1010.2;   7.0; 250.0; 175.583;  36.250;   0.355; 62;
79.3221; 171.1432;2; 348.252; 251.922;1966.05.29 00:00:00;  -7.4;1013.0;   4.0; 200.0; 177.712;  36.500;   0.355; 62;
79.3310; 171.2345;2; 348.183; 251.725;1966.05.29 06:00:00;  -6.4;1014.1;   5.0; 180.0; 179.842;  36.750;   0.355; 62;
79.3400; 171.3260;2; 348.115; 251.529;1966.05.29 12:00:00;  -7.4;1014.0;   7.0; 180.0; 181.972;  37.000;   0.355; 62;
79.3435; 171.3774;2; 348.092; 251.421;1966.05.29 18:00:00;  -7.0;1010.4;   7.0; 140.0; 183.099;  37.250;   0.188; 70;
79.3471; 171.4288;2; 348.070; 251.313;1966.05.30 00:00:00;  -5.6;1007.6;   7.0; 160.0; 184.227;  37.500;   0.188; 70;
79.3506; 171.4803;2; 348.048; 251.205;1966.05.30 06:00:00;  -4.4;1007.4;   5.0; 200.0; 185.354;  37.750;   0.188; 70;
79.3541; 171.5317;2; 348.025; 251.097;1966.05.30 12:00:00;  -5.8;1009.8;   6.0; 250.0; 186.481;  38.000;   0.188; 70;
79.3576; 171.5833;2; 348.003; 250.989;1966.05.30 18:00:00;  -7.4;1012.9;   4.0; 250.0; 187.608;  38.250;   0.188; 70;
79.3611; 171.6348;2; 347.980; 250.881;1966.05.31 00:00:00;  -6.1;1013.8;   4.0; 180.0; 188.735;  38.500;   0.188; 70;
79.3645; 171.6864;2; 347.958; 250.773;1966.05.31 06:00:00;  -2.2;1012.3;   9.0; 180.0; 189.863;  38.750;   0.188; 70;
79.3680; 171.7380;2; 347.936; 250.665;1966.05.31 12:00:00;  -3.0;1010.3;   9.0; 160.0; 190.990;  39.000;   0.188; 70;
79.3747; 171.7609;2; 347.870; 250.609;1966.05.31 18:00:00;  -2.8;1008.8;   9.0; 180.0; 191.869;  39.250;   0.147; 32;
79.3813; 171.7839;2; 347.805; 250.553;1966.06.01 00:00:00;  -1.8;1000.8;   8.0; 180.0; 192.747;  39.500;   0.146; 32;
79.3880; 171.8069;2; 347.740; 250.497;1966.06.01 06:00:00;  -1.0;1007.7;   6.0; 200.0; 193.626;  39.750;   0.146; 32;
79.3947; 171.8299;2; 347.674; 250.441;1966.06.01 12:00:00;  -4.2;1009.8;   3.0; 340.0; 194.505;  40.000;   0.146; 32;
79.4014; 171.8529;2; 347.609; 250.385;1966.06.01 18:00:00;  -6.2;1013.9;   2.0; 290.0; 195.383;  40.250;   0.146; 32;
79.4080; 171.8760;2; 347.544; 250.329;1966.06.02 00:00:00;  -5.2;1016.2;   2.0; 250.0; 196.262;  40.500;   0.146; 32;
79.4147; 171.8991;2; 347.478; 250.273;1966.06.02 06:00:00;  -5.6;1018.5;   0.0;   0.0; 197.142;  40.750;   0.147; 32;
79.4214; 171.9222;2; 347.413; 250.217;1966.06.02 12:00:00;  -9.8;1018.9;   1.0;  70.0; 198.019;  41.000;   0.146; 33;
79.4280; 171.9454;2; 347.348; 250.161;1966.06.02 18:00:00;  -6.8;1016.6;   4.0;  70.0; 198.898;  41.250;   0.146; 33;
79.4347; 171.9685;2; 347.283; 250.106;1966.06.03 00:00:00;  -3.8;1011.1;   8.0;  70.0; 199.777;  41.500;   0.146; 33;
79.4413; 171.9918;2; 347.218; 250.050;1966.06.03 06:00:00;  -1.0;1006.9;   5.0;  90.0; 200.655;  41.750;   0.146; 33;
79.4480; 172.0150;2; 347.152; 249.994;1966.06.03 12:00:00;  -1.8;1005.5;   1.0; 340.0; 201.534;  42.000;   0.146; 33;
79.4603; 172.0320;2; 347.025; 249.942;1966.06.03 18:00:00;  -3.0;1008.2;   2.0; 340.0; 202.940;  42.250;   0.234; 14;
79.4725; 172.0490;2; 346.898; 249.890;1966.06.04 00:00:00;  -3.8;1011.5;   3.0; 360.0; 204.347;  42.500;   0.234; 14;
79.4848; 172.0661;2; 346.770; 249.838;1966.06.04 06:00:00;  -4.3;1014.3;   4.0;  50.0; 205.752;  42.750;   0.234; 14;
79.4970; 172.0832;2; 346.643; 249.786;1966.06.04 12:00:00;  -4.9;1016.1;   5.0;  50.0; 207.157;  43.000;   0.234; 14;
79.5093; 172.1003;2; 346.516; 249.734;1966.06.04 18:00:00;  -4.5;1015.9;   4.0;  50.0; 208.564;  43.250;   0.234; 14;
79.5215; 172.1175;2; 346.389; 249.682;1966.06.05 00:00:00;  -3.1;1015.2;   3.0;  50.0; 209.969;  43.500;   0.234; 14;
79.5338; 172.1347;2; 346.261; 249.630;1966.06.05 06:00:00;  -2.4;1014.9;   2.0; 230.0; 211.374;  43.750;   0.234; 14;
79.5460; 172.1520;2; 346.134; 249.578;1966.06.05 12:00:00;  -2.2;1015.0;   2.0; 200.0; 212.780;  44.000;   0.234; 14;
79.5468; 172.1667;2; 346.130; 249.548;1966.06.05 18:00:00;  -2.4;1011.0;   2.0;  90.0; 213.089;  44.250;   0.052; 74;
79.5475; 172.1815;2; 346.126; 249.518;1966.06.06 00:00:00;  -1.2;1003.4;   7.0; 110.0; 213.398;  44.500;   0.052; 74;
79.5482; 172.1962;2; 346.122; 249.488;1966.06.06 06:00:00;  -0.4; 994.3;   5.0; 230.0; 213.707;  44.750;   0.051; 74;
79.5490; 172.2110;2; 346.118; 249.458;1966.06.06 12:00:00;  -4.0; 997.0;  12.0; 270.0; 214.016;  45.000;   0.052; 74;
79.5415; 172.2123;2; 346.199; 249.467;1966.06.06 18:00:00;  -5.8;1001.7;  13.0; 270.0; 214.851;  45.250;   0.139;178;
79.5340; 172.2135;2; 346.280; 249.475;1966.06.07 00:00:00;  -6.2;1008.3;  13.0; 290.0; 215.686;  45.500;   0.139;178;
79.5265; 172.2148;2; 346.361; 249.484;1966.06.07 06:00:00;  -6.4;1014.1;  12.0; 290.0; 216.520;  45.750;   0.139;178;
79.5190; 172.2160;2; 346.442; 249.493;1966.06.07 12:00:00;  -6.4;1019.2;   5.0; 320.0; 217.354;  46.000;   0.139;178;
79.5115; 172.2173;2; 346.523; 249.501;1966.06.07 18:00:00;  -5.5;1022.8;   1.0; 270.0; 218.188;  46.250;   0.139;178;
79.5040; 172.2185;2; 346.604; 249.510;1966.06.08 00:00:00;  -3.8;1024.9;   4.0; 270.0; 219.023;  46.500;   0.139;178;
79.4965; 172.2198;2; 346.686; 249.518;1966.06.08 06:00:00;  -2.8;1025.4;   5.0; 230.0; 219.857;  46.750;   0.139;178;
79.4890; 172.2210;2; 346.767; 249.527;1966.06.08 12:00:00;  -3.8;1025.0;   5.0; 230.0; 220.691;  47.000;   0.139;178;
79.4943; 172.2543;2; 346.719; 249.454;1966.06.08 18:00:00;  -4.1;1023.7;   4.0; 230.0; 221.586;  47.250;   0.149; 49;
79.4995; 172.2877;2; 346.671; 249.380;1966.06.09 00:00:00;  -3.6;1022.6;   3.0; 230.0; 222.481;  47.500;   0.149; 49;
79.5048; 172.3210;2; 346.623; 249.307;1966.06.09 06:00:00;  -4.0;1020.0;   4.0; 200.0; 223.375;  47.750;   0.149; 49;
79.5101; 172.3545;2; 346.575; 249.234;1966.06.09 12:00:00;  -4.9;1017.4;   3.0; 200.0; 224.269;  48.000;   0.149; 49;
79.5153; 172.3879;2; 346.527; 249.161;1966.06.09 18:00:00;  -5.2;1013.4;   5.0; 200.0; 225.163;  48.250;   0.149; 49;
79.5206; 172.4214;2; 346.480; 249.088;1966.06.10 00:00:00;  -5.9;1009.6;   5.0; 180.0; 226.057;  48.500;   0.149; 49;
79.5258; 172.4549;2; 346.432; 249.014;1966.06.10 06:00:00;  -5.8;1005.7;   7.0; 180.0; 226.952;  48.750;   0.149; 49;
79.5311; 172.4885;2; 346.384; 248.941;1966.06.10 12:00:00;  -5.2;1002.9;  10.0; 160.0; 227.846;  49.000;   0.149; 49;
79.5363; 172.5220;2; 346.336; 248.868;1966.06.10 18:00:00;  -5.0;1001.5;   6.0; 140.0; 228.741;  49.250;   0.149; 49;
79.5415; 172.5557;2; 346.288; 248.795;1966.06.11 00:00:00;  -4.3;1001.6;   3.0;  90.0; 229.635;  49.500;   0.149; 49;
79.5468; 172.5893;2; 346.240; 248.722;1966.06.11 06:00:00;  -4.1;1001.2;   2.0;  50.0; 230.529;  49.750;   0.149; 49;
79.5520; 172.6230;2; 346.192; 248.648;1966.06.11 12:00:00;  -8.4;1001.6;   2.0; 340.0; 231.424;  50.000;   0.149; 49;